Regional Weather Roundup
Issued by NWS Upton, NY

Current Version | Previous Version | Graphics & Text | Print | Product List | Glossary Off
Versions: 1 2 3 4 5 6 7 8 9 10 11 12 13 14 15 16 17 18 19 20 21 22 23 24 25 26 27 28 29 30 31 32 33 34 35 36 37 38 39 40 41 42 43 44 45 46 47 48 49 50

000
ASUS41 KOKX 042208
RWROKX

REGIONAL WEATHER ROUNDUP
NATIONAL WEATHER SERVICE NEW YORK NY
600 PM EDT SAT JUL 04 2015

NOTE: "FAIR" INDICATES FEW OR NO CLOUDS BELOW 12,000 FEET WITH NO
SIGNIFICANT WEATHER AND/OR OBSTRUCTIONS TO VISIBILITY.

NYZ071-072-176-178-NJZ106-104-042300-
NEW YORK CITY METRO AREA


CITY           SKY/WX    TMP DP  RH WIND       PRES   REMARKS
CENTRAL PARK   PTSUNNY   74  56  53 VRB3      29.97S
LAGUARDIA APRT PTSUNNY   75  49  39 NE8       29.94S
KENNEDY INTL   PTSUNNY   80  41  24 NE5       29.94S
NEWARK/LIBERTY PTSUNNY   77  57  50 CALM      29.93F
BRNX BOT. GARD   N/A     75  55  50 E1        29.94F
TETERBORO      PTSUNNY   76  59  55 VRB5      29.93S
$$

NYZ177-179-078>081-042300-
LONG ISLAND NEW YORK

CITY           SKY/WX    TMP DP  RH WIND       PRES   REMARKS
FARMINGDALE    MOSUNNY   75  60  59 VRB6      29.94S
ISLIP          PTSUNNY   75  59  57 N9        29.92S
SHIRLEY        MOSUNNY   75  59  57 VRB5      29.94S
WESTHAMPTON    PTSUNNY   74  58  57 NE8       29.95S
MONTAUK POINT    N/A     70  56  61 N5        29.95R
$$

NYZ052-065-067-042300-
HUDSON VALLEY

CITY           SKY/WX    TMP DP  RH WIND       PRES   REMARKS
WHITE PLAINS   MOSUNNY   75  55  49 VRB3      29.95S
NEWBURGH       PTSUNNY   70  61  73 CALM      29.98S
MONTGOMERY     CLOUDY    73  59  61 N5        29.97S
POUGHKEEPSIE   CLOUDY    73  58  59 N3        29.96S
ALBANY         PTSUNNY   68  61  78 E5        29.97F
$$

NJZ001-105-106-008-010-013-015-019>022-104-042300-
NEW JERSEY

CITY           SKY/WX    TMP DP  RH WIND       PRES   REMARKS
NEWARK/LIBERTY PTSUNNY   77  57  50 CALM      29.93F
TETERBORO      PTSUNNY   76  59  55 VRB5      29.93S
CALDWELL       PTSUNNY   73  56  54 NE5       29.95S
MORRISTOWN     PTSUNNY   77  61  57 N6        29.95S
SOMERVILLE     CLOUDY    75  55  49 N3        29.93S
SUSSEX         CLOUDY    70  60  70 N5        29.97S
ANDOVER          N/A     70  62  76 N3        29.97S
TRENTON        CLOUDY    73  54  51 E6        29.94S
MILLVILLE      CLOUDY    76  65  68 SE6       29.93R
ATLANTIC CITY  MOSUNNY   76  59  55 NE9       29.93R
WRIGHTSTOWN    LGT RAIN  72  61  68 NE9       29.92R
TOMS RIVER     CLOUDY    73  55  53 NE7       29.95R
BELMAR         CLOUDY    73  55  53 NE7       29.95S
$$

PAZ047>061-062-071-042300-
EASTERN PENNSYLVANIA

CITY           SKY/WX    TMP DP  RH WIND       PRES   REMARKS
PHILADELPHIA   CLOUDY    75  61  61 E5        29.94S
ALLENTOWN      CLOUDY    72  59  63 CALM      29.96R
SCRANTON       CLOUDY    66  61  84 CALM      29.99R HAZE
$$

CTZ002-004>006-009-010-012-RIZ004-006-007-MAZ004-011-015-042300-
SOUTHERN NEW ENGLAND
 IN CT

CITY           SKY/WX    TMP DP  RH WIND       PRES   REMARKS
BRADLEY INTL   MOSUNNY   71  60  68 N7        29.96S
HARTFORD       MOSUNNY   73  61  65 N8        29.95S
DANBURY        MOSUNNY   73  55  53 NW5       29.97S
WTRBRY/OXFORD  MOSUNNY   72  55  56 NE6       29.98F
BRIDGEPORT     SUNNY     72  63  73 SE10      29.94S
MERIDEN        MOSUNNY   75  58  55 N8        29.95S
NEW HAVEN      MOSUNNY   73  61  65 SE8       29.94S
CHESTER        FAIR      72  59  64 E6        29.96S
GROTON         CLOUDY    70  53  54 E5        29.93S
WILLIMANTIC    CLOUDY    73  58  59 N6        29.95S

 IN RI

CITY           SKY/WX    TMP DP  RH WIND       PRES   REMARKS
PROVIDENCE     LGT RAIN  73  54  51 N5        29.94S
BLOCK ISLAND   PTSUNNY   66  57  72 NE6       29.94R
WESTERLY       CLOUDY    71  53  52 CALM      29.94S

 IN MA

CITY           SKY/WX    TMP DP  RH WIND       PRES   REMARKS
BOSTON         CLOUDY    67  57  70 NE5       29.95F
WORCESTER      PTSUNNY   68  58  70 N6        29.98F
WESTFIELD      PTSUNNY   70  59  68 NE6       29.96F
PROVINCETOWN   PTSUNNY   70  12  11 E7        29.94F
NANTUCKET      PTSUNNY   66  54  65 NE10      29.92F
$$

ANZ330-335-338-340-345-350-353-355-042300-
COASTAL MARINE OBSERVATIONS


STATION/POSITION TIME  SKY/WX   TEMP    WIND        PRES    VSBY  WAVE
                                AIR SEA DIR/SP/G                  HT/PER
                 (UTC)          (F)     (DEG/KT/KT) (MB)    (MI)  (FT/S)
NY HARB ENTRANCE 2150            71 69   40/  8/  8 1013.6          2/ 8
4S FIRE IS       2103               70                N/A           2/ 8
20S FIRE ISLAND  2150            69 69   40/ 10/ 12 1013.2          3/ 8
GREAT SOUTH BAY  2100            72 75   60/ 10/ 14   N/A
23SW MTP         2150            68 69   60/ 14/ 16 1012.6          3/ 8
HUDSON CANYON    NOT AVBL
KINGS POINT      2100            74 66   20/  7/ 10 1013.2
CENTRAL LI SOUND NOT AVBL
EASTERN LI SOUND 2100            68 63  110/ 10/ 14   N/A
ROBBINS REEF     2100            73      50/  5/  7 1012.7
$$


>>>>>>>>>>>>>>>>>>>>>>>>>>>> KEY <<<<<<<<<<<<<<<<<<<<<<<<<<<
>                                                          <
>     SKY/WX - SKY CONDITION/PRESENT WEATHER               <
>     TMP    - TEMPERATURE IN FAHRENHEIT                   <
>     DP     - DEWPOINT IN FAHRENHEIT                      <
>     RH     - RELATIVE HUMIDITY IN PERCENT                <
>     WIND   - DIRECTION AND SPEED IN MPH                  <
>     PRES   - MEAN SEA LEVEL PRESSURE IN INCHES OF HG     <
>     WCI    - WIND CHILL INDEX                            <
>     VSB    - VISIBILITY IN MILES                         <
>     HX     - HEAT INDEX                                  <
>     TC     - TEMPERATURE IN CELSIUS                      <
>     VRB    - VARIABLE WIND DIRECTION                     <
>                                                          <
>>>>>>>>>>>>>>>>>>>>>>>>>>>> KEY <<<<<<<<<<<<<<<<<<<<<<<<<<<




USA.gov is the U.S. government's official web portal to all federal, state and local government web resources and services.